Weather History for Syracuse, NY

Change the Weather History Date:

Tuesday, September 18, 2012

  Actual Average Record
Temperature  
Mean Temperature 66 °F 61 °F  
Max Temperature 77 °F 71 °F 91 °F (1955)
Min Temperature 55 °F 51 °F 34 °F (1939)
Degree Days  
Heating Degree Days 0 5  
Month to date heating degree days 21 54  
Since 1 July heating degree days 22 80  
Cooling Degree Days 1 1  
Month to date cooling degree days 76 43  
Year to date cooling degree days 949 556  
Growing Degree Days 16 (Base 50)    
Moisture  
Dew Point 61 °F    
Average Humidity 79    
Maximum Humidity 100    
Minimum Humidity 58    
Precipitation  
Precipitation 0.82 in 0.13 in 2.29 in (1945)
Month to date precipitation 1.91 2.16  
Year to date precipitation 20.94 26.75  
Snow  
Snow 0.00 in 0.00 in 0.00 in (2002)
Month to date snowfall 0.0 0.0  
Since 1 July snowfall 0.0 0.0  
Since 1 September snowfall 0.0 0.0  
Snow Depth 0.00 in    
Sea Level Pressure  
Sea Level Pressure 29.62 in    
Wind  
Wind Speed 10 mph (SSW)    
Max Wind Speed 30 mph    
Max Gust Speed 43 mph    
Visibility 7 miles    
Events Rain    
T = Trace of Precipitation, MM = Missing Value Source: NWS Daily Summary

Daily Weather History Graph

Daily Weather History Graph

Search for Another Location

Airport:

Trip Planner

Search our weather history database for the weather conditions in past years. The results will help you decide how hot, cold, wet, or windy it might be!

Date:

Astronomy

Sep. 18, 2012 Rise Set
Actual Time 6:47 AM EDT 7:08 PM EDT
Civil Twilight 6:19 AM EDT 7:36 PM EDT
Nautical Twilight 5:45 AM EDT 8:09 PM EDT
Astronomical Twilight 5:11 AM EDT 8:44 PM EDT
Moon 9:51 AM EDT (9/18) 8:22 PM EDT (9/18)
Length of Visible Light 13h 17m
Length of Day
12h 20m
Waxing Crescent, 9% of the Moon is Illuminated
Sep 18
Waxing Crescent
Sep 22
First Quarter
Sep 29
Full
Oct 8
Last Quarter
Oct 15
New

Hourly Weather History & Observations

Time (EDT) Temp. Dew Point Humidity Pressure Visibility Wind Dir Wind Speed Gust Speed Precip Events Conditions
12:54 AM 66.9 °F 52.0 °F 59% 29.87 in 10.0 mi South 13.8 mph - N/A   Overcast
1:54 AM 66.0 °F 52.0 °F 60% 29.85 in 10.0 mi SSE 13.8 mph 20.7 mph N/A   Overcast
2:54 AM 66.0 °F 54.0 °F 65% 29.81 in 10.0 mi SSE 10.4 mph - N/A   Overcast
3:54 AM 66.0 °F 55.9 °F 70% 29.79 in 10.0 mi SSE 10.4 mph - N/A   Overcast
4:54 AM 66.9 °F 57.9 °F 73% 29.77 in 10.0 mi ESE 10.4 mph - N/A   Overcast
5:02 AM 66.2 °F 57.2 °F 73% 29.78 in 10.0 mi SE 8.1 mph - N/A   Overcast
5:54 AM 68.0 °F 59.0 °F 73% 29.75 in 10.0 mi SE 6.9 mph - N/A   Overcast
6:01 AM 68.0 °F 59.0 °F 73% 29.76 in 9.0 mi SE 9.2 mph - 0.00 in Rain Light Rain
6:54 AM 66.9 °F 60.1 °F 79% 29.74 in 7.0 mi SE 8.1 mph - 0.00 in Rain Light Rain
7:54 AM 64.9 °F 62.1 °F 90% 29.71 in 4.0 mi East 10.4 mph - 0.05 in Rain Light Rain
8:08 AM 64.4 °F 62.6 °F 94% 29.72 in 2.5 mi East 11.5 mph - 0.03 in Rain Rain
8:13 AM 64.4 °F 62.6 °F 94% 29.72 in 3.0 mi East 6.9 mph - 0.04 in Rain Rain
8:54 AM 64.0 °F 62.1 °F 93% 29.67 in 4.0 mi East 6.9 mph - 0.10 in Rain Light Rain
9:07 AM 64.4 °F 62.6 °F 94% 29.67 in 2.5 mi East 8.1 mph - 0.01 in Rain Rain
9:22 AM 64.4 °F 62.6 °F 94% 29.66 in 3.0 mi East 8.1 mph - 0.03 in Rain Light Rain
9:54 AM 64.0 °F 63.0 °F 96% 29.62 in 6.0 mi ENE 8.1 mph - 0.08 in Rain Light Rain
10:17 AM 64.4 °F 62.6 °F 94% 29.62 in 2.5 mi ENE 6.9 mph - 0.03 in Rain Heavy Rain
10:28 AM 64.4 °F 62.6 °F 94% 29.60 in 1.2 mi NE 9.2 mph - 0.09 in Rain Heavy Rain
10:41 AM 64.4 °F 64.4 °F 100% 29.59 in 2.5 mi ENE 8.1 mph - 0.15 in Rain Rain
10:49 AM 64.4 °F 64.4 °F 100% 29.57 in 4.0 mi ENE 9.2 mph - 0.16 in Rain Rain
10:54 AM 64.9 °F 64.9 °F 100% 29.56 in 4.0 mi ENE 8.1 mph - 0.17 in Rain Rain
11:15 AM 66.2 °F 66.2 °F 100% 29.55 in 10.0 mi East 12.7 mph - 0.00 in Rain Light Rain
11:54 AM 70.0 °F 66.9 °F 90% 29.51 in 10.0 mi ESE 11.5 mph - 0.01 in Rain Light Rain
12:54 PM 72.0 °F 66.9 °F 84% 29.44 in 10.0 mi SE 12.7 mph - 0.05 in Rain Light Rain
1:54 PM 75.9 °F 66.9 °F 74% 29.40 in 10.0 mi South 23.0 mph 38.0 mph 0.01 in   Overcast
2:09 PM 69.8 °F 64.4 °F 83% 29.46 in 0.8 mi West 29.9 mph 42.6 mph 0.00 in Rain Light Rain
2:14 PM 64.4 °F 62.6 °F 94% 29.47 in 1.0 mi West 19.6 mph 39.1 mph 0.09 in Rain Heavy Rain
2:23 PM 64.4 °F 62.6 °F 94% 29.47 in 2.0 mi West 12.7 mph 25.3 mph 0.15 in Rain Heavy Rain
2:32 PM 66.2 °F 64.4 °F 94% 29.47 in 1.8 mi WSW 9.2 mph - 0.21 in Rain Heavy Rain
2:38 PM 66.2 °F 64.4 °F 94% 29.47 in 2.0 mi SW 10.4 mph - 0.25 in Rain Heavy Rain
2:41 PM 66.2 °F 64.4 °F 94% 29.47 in 3.0 mi SW 10.4 mph - 0.26 in Rain Rain
2:54 PM 66.0 °F 64.0 °F 93% 29.46 in 5.0 mi SW 8.1 mph - 0.27 in Rain Light Rain
3:54 PM 68.0 °F 64.9 °F 90% 29.47 in 10.0 mi South 4.6 mph - 0.01 in   Overcast
4:54 PM 69.1 °F 64.0 °F 84% 29.48 in 10.0 mi SSW 4.6 mph - N/A   Overcast
5:54 PM 69.1 °F 64.0 °F 84% 29.49 in 10.0 mi South 4.6 mph - N/A   Overcast
6:54 PM 69.1 °F 64.0 °F 84% 29.49 in 10.0 mi SSW 5.8 mph - N/A   Overcast
7:10 PM 66.2 °F 62.6 °F 88% 29.54 in 2.5 mi West 17.3 mph 27.6 mph 0.00 in Rain Light Rain
7:21 PM 64.4 °F 62.6 °F 94% 29.54 in 9.0 mi WSW 11.5 mph - 0.02 in Rain Light Rain
7:54 PM 64.9 °F 62.1 °F 90% 29.56 in 10.0 mi WSW 6.9 mph - 0.02 in   Overcast
7:58 PM 64.4 °F 62.6 °F 94% 29.57 in 10.0 mi West 8.1 mph - 0.00 in Rain Light Rain
8:02 PM 64.4 °F 62.6 °F 94% 29.58 in 6.0 mi West 9.2 mph - 0.00 in Rain Light Rain
8:24 PM 62.6 °F 59.0 °F 88% 29.61 in 4.0 mi West 11.5 mph 29.9 mph 0.01 in Rain Light Rain
8:44 PM 62.6 °F 57.2 °F 82% 29.63 in 10.0 mi West 17.3 mph 28.8 mph 0.02 in Rain Light Rain
8:48 PM 60.8 °F 57.2 °F 88% 29.63 in 10.0 mi West 15.0 mph 28.8 mph 0.02 in Rain Light Rain
8:54 PM 61.0 °F 57.9 °F 90% 29.63 in 10.0 mi West 15.0 mph 24.2 mph 0.02 in Rain Light Rain
9:22 PM 60.8 °F 55.4 °F 82% 29.67 in 10.0 mi West 19.6 mph 32.2 mph 0.00 in Rain Light Rain
9:54 PM 57.9 °F 55.0 °F 90% 29.70 in 8.0 mi West 20.7 mph - 0.00 in Rain Light Rain
10:27 PM 57.2 °F 53.6 °F 88% 29.73 in 10.0 mi West 16.1 mph - 0.01 in Rain Light Rain
10:54 PM 57.0 °F 54.0 °F 89% 29.74 in 10.0 mi West 12.7 mph - 0.01 in Rain Light Rain
11:19 PM 57.2 °F 53.6 °F 88% 29.76 in 10.0 mi West 13.8 mph 21.9 mph 0.02 in Rain Light Rain
11:37 PM 55.4 °F 53.6 °F 94% 29.77 in 8.0 mi West 12.7 mph 23.0 mph 0.02 in Rain Light Rain
11:54 PM 55.9 °F 52.0 °F 87% 29.77 in 10.0 mi West 16.1 mph - 0.02 in   Overcast